Regional Weather Roundup
Issued by NWS

Home | Current Version | Previous Version | Graphics & Text | Print | Product List | Glossary On
Versions: 1 2 3 4 5 6 7 8 9 10 11 12 13 14 15 16 17 18 19 20 21 22 23 24 25 26 27 28 29 30 31 32 33 34 35 36 37 38 39 40 41 42 43 44 45 46 47 48 49 50
000
ASUS43 KLMK 031910
RWRKY
KENTUCKY REGIONAL WEATHER ROUNDUP
NATIONAL WEATHER SERVICE LOUISVILLE KY
200 PM EST TUE MAR 03 2015

NOTE "FAIR" INDICATES FEW OR NO CLOUDS BELOW 12,000 FEET
WITH NO SIGNIFICANT WEATHER AND/OR OBSTRUCTIONS TO VISIBILITY.

KYZ001>023-026-027-061>063-070>075-032000-
WESTERN AND SOUTH CENTRAL KENTUCKY

CITY           SKY/WX    TMP DP  RH WIND       PRES   REMARKS
PADUCAH        FOG       49  48  97 SW12      29.91F VSB 1/4
HENDERSON      CLOUDY    46  45  93 S10       29.88F VSB 1
OWENSBORO      CLOUDY    50  49  96 SW15G21   29.88F FOG
HOPKINSVILLE   CLOUDY    58  56  91 SW13      29.94F
BOWLING GREEN  RAIN      58  54  86 SW14      29.96F FOG
GLASGOW        NOT AVBL
$$

KYZ024-025-028>034-038-045-046-053-032000-
NORTH CENTRAL KENTUCKY

CITY           SKY/WX    TMP DP  RH WIND       PRES   REMARKS
LOUISVILLE/SDF LGT RAIN  54  51  90 S13       29.85F
LOUISVILLE/LOU LGT RAIN  51  48  89 S7        29.86F FOG
FORT KNOX      CLOUDY    53  50  90 S15G25    29.86F
$$

KYZ035>037-039>044-047>052-055>060-089>105-032000-
NORTHEAST KENTUCKY

CITY           SKY/WX    TMP DP  RH WIND       PRES   REMARKS
LEXINGTON      CLOUDY    53  51  93 S20G25    29.89F
COVINGTON      LGT RAIN  42  41  96 SW13G21   29.81F VSB 1/4
FRANKFORT      CLOUDY    54  50  86 SW14      29.86F
$$

KYZ054-064>069-076>088-106>120-032000-
SOUTHEAST KENTUCKY

CITY           SKY/WX    TMP DP  RH WIND       PRES   REMARKS
JACKSON        CLOUDY    55  46  71 VRB6      29.95F
LONDON         CLOUDY    57  48  72 S8        29.99F
SOMERSET       NOT AVBL
MIDDLESBORO    NOT AVBL
MONTICELLO     CLOUDY    61  55  80 S12       30.00F
$$



USA.gov is the U.S. government's official web portal to all federal, state and local government web resources and services.